Hoquiam, WA
on Monday, November 26, 2012

Monday
Previous Day Next Day
Daily Summary
 ActualAverageRecord
Temperature
Mean Temperature °F / °C 44°F / 7°C  
Max Temperature 48°F / 9°C 49°F / 9°C 55°F / 12°C (1954)
Min Temperature 37°F / 3°C 39°F / 4°C 30°F / -1°C (1956)
Degree Days
Heating Degree Days 22 21  
Month to date heating degree days 488  
Cooling Degree Days 0 0  
Month to date cooling degree days 0  
Year to date cooling degree days 23  
Growing Degree Days0 (Base °F / °C )  
Moisture
Dew Point 35°F / 2°C   
Average Humidity 78    
Maximum Humidity 93    
Minimum Humidity 59    
Precipitation
Precipitation 0.00 in / 0.00 cm 0.37 in / 9.40 cm 1.56 in / 3.96 cm (2000)
Month to date precipitation 9.66  
Year to date precipitation 56.08  
Wind
Wind Speed 11 mph / 18 km/h   
Max Wind Speed 15 mph / 24 km/h   
Max Gust Speed mph / km/h   
Visibility 10 miles / 16 kilometers   
Events     

Key: T is trace of precipitation, MM is missing value
Source: NWS Daily Summary
Time(PST)TemperatureDew PointHumidity Pressure Visibility Wind DirectionWind SpeedGust SpeedPrecipitationEvents Conditions
12:53 AM 37.9°F / 3.3°C 34.0°F / 1.1°C 86% 30.17 in / 1021.6 hPa 10.0 miles / 16.1 kilometers NE 10.4 mph / 16.7 km/h - N/A   Clear
1:53 AM 37.9°F / 3.3°C 34.0°F / 1.1°C 86% 30.15 in / 1020.8 hPa 10.0 miles / 16.1 kilometers ENE 8.1 mph / 13.0 km/h - N/A   Clear
2:53 AM 37.9°F / 3.3°C 34.0°F / 1.1°C 86% 30.14 in / 1020.6 hPa 10.0 miles / 16.1 kilometers NE 10.4 mph / 16.7 km/h - N/A   Clear
3:53 AM 37.9°F / 3.3°C 34.0°F / 1.1°C 86% 30.12 in / 1019.8 hPa 10.0 miles / 16.1 kilometers ENE 10.4 mph / 16.7 km/h - N/A   Clear
4:53 AM 37.0°F / 2.8°C 34.0°F / 1.1°C 89% 30.12 in / 1019.7 hPa 10.0 miles / 16.1 kilometers ENE 10.4 mph / 16.7 km/h - N/A   Clear
5:53 AM 37.9°F / 3.3°C 34.0°F / 1.1°C 86% 30.11 in / 1019.5 hPa 10.0 miles / 16.1 kilometers ENE 11.5 mph / 18.5 km/h - N/A   Clear
6:53 AM 37.0°F / 2.8°C 33.1°F / 0.6°C 86% 30.10 in / 1019.1 hPa 10.0 miles / 16.1 kilometers ENE 10.4 mph / 16.7 km/h - N/A   Clear
7:53 AM 37.9°F / 3.3°C 34.0°F / 1.1°C 86% 30.09 in / 1018.7 hPa 10.0 miles / 16.1 kilometers ENE 10.4 mph / 16.7 km/h - N/A   Clear
8:53 AM 39.9°F / 4.4°C 34.0°F / 1.1°C 79% 30.09 in / 1018.7 hPa 10.0 miles / 16.1 kilometers ENE 12.7 mph / 20.4 km/h - N/A   Clear
9:53 AM 42.1°F / 5.6°C 35.1°F / 1.7°C 76% 30.07 in / 1018.2 hPa 10.0 miles / 16.1 kilometers ENE 13.8 mph / 22.2 km/h - N/A   Clear
10:53 AM 46.0°F / 7.8°C 35.1°F / 1.7°C 66% 30.07 in / 1018.3 hPa 10.0 miles / 16.1 kilometers ENE 15.0 mph / 24.1 km/h - N/A   Clear
11:53 AM 46.0°F / 7.8°C 36.0°F / 2.2°C 68% 30.06 in / 1017.7 hPa 10.0 miles / 16.1 kilometers East 15.0 mph / 24.1 km/h - N/A   Clear
12:53 PM 48.0°F / 8.9°C 37.0°F / 2.8°C 66% 30.04 in / 1017.2 hPa 10.0 miles / 16.1 kilometers ENE 15.0 mph / 24.1 km/h - N/A   Clear
1:53 PM 48.9°F / 9.4°C 35.1°F / 1.7°C 59% 30.03 in / 1016.7 hPa 10.0 miles / 16.1 kilometers ENE 11.5 mph / 18.5 km/h - N/A   Clear
2:53 PM 48.0°F / 8.9°C 37.0°F / 2.8°C 66% 30.02 in / 1016.4 hPa 10.0 miles / 16.1 kilometers ENE 12.7 mph / 20.4 km/h - N/A   Clear
3:53 PM 46.9°F / 8.3°C 36.0°F / 2.2°C 66% 30.02 in / 1016.4 hPa 10.0 miles / 16.1 kilometers ENE 9.2 mph / 14.8 km/h - N/A   Clear
4:53 PM 45.0°F / 7.2°C 35.1°F / 1.7°C 68% 30.02 in / 1016.6 hPa 10.0 miles / 16.1 kilometers NE 8.1 mph / 13.0 km/h - N/A   Clear
5:53 PM 43.0°F / 6.1°C 34.0°F / 1.1°C 71% 30.03 in / 1016.7 hPa 10.0 miles / 16.1 kilometers ENE 8.1 mph / 13.0 km/h - N/A   Partly Cloudy
6:53 PM 42.1°F / 5.6°C 35.1°F / 1.7°C 76% 30.03 in / 1016.8 hPa 10.0 miles / 16.1 kilometers ENE 8.1 mph / 13.0 km/h - N/A   Clear
7:53 PM 41.0°F / 5.0°C 36.0°F / 2.2°C 82% 30.05 in / 1017.4 hPa 10.0 miles / 16.1 kilometers ENE 8.1 mph / 13.0 km/h - N/A   Clear
8:53 PM 41.0°F / 5.0°C 35.6°F / 2.0°C 81% 30.05 in / 1017.5 hPa 10.0 miles / 16.1 kilometers NE 6.9 mph / 11.1 km/h - N/A   Clear
9:53 PM 41.0°F / 5.0°C 36.0°F / 2.2°C 82% 30.06 in / 1017.7 hPa 10.0 miles / 16.1 kilometers NE 9.2 mph / 14.8 km/h - N/A   Clear
10:53 PM 41.0°F / 5.0°C 36.0°F / 2.2°C 82% 30.06 in / 1017.7 hPa 10.0 miles / 16.1 kilometers ENE 6.9 mph / 11.1 km/h - N/A   Mostly Cloudy
11:53 PM 39.0°F / 3.9°C 37.0°F / 2.8°C 93% 30.06 in / 1018.0 hPa 10.0 miles / 16.1 kilometers ENE 10.4 mph / 16.7 km/h - N/A   Overcast
Moon Phase
Nov. 26 Nov. 28 Dec. 06 Dec. 13 Dec. 20
Sunrise:07:35 AM (PST) Moon Rise:03:29 PM (PST)11/26
Sunset:04:31 PM (PST) Moon Set:05:46 AM (PST)11/26

Copyright © 2014 The Weather Underground, Inc.